Regional Weather Roundup
Issued by NWS Goodland, KS

Home | Current Version | Previous Version | Text Only | Print | Product List | Glossary On
Versions: 1 2 3 4 5 6 7 8 9 10 11 12 13 14 15 16 17 18 19 20 21 22 23 24 25 26 27 28 29 30 31 32 33 34 35 36 37 38 39 40 41 42 43 44 45 46 47 48 49 50
000
ASUS43 KGLD 260308
RWRGLD

GOODLAND FORECAST AREA HOURLY WEATHER ROUNDUP
NATIONAL WEATHER SERVICE GOODLAND KS
800 PM MST SUN JAN 25 2015

...OFFICIAL OBSERVATIONS...

CITY           SKY/WX    TMP DP  RH WIND       PRES   REMARKS
GOODLAND KS    CLEAR     35  29  78 SW6       30.13S
HILL CITY KS   CLEAR     28  18  66 W6        30.11R
IMPERIAL NEB   MOCLDY    41  32  70 W9        30.08F
MCCOOK NEB     CLOUDY    41  21  44 SW9       30.08S
AKRON CO       CLEAR     45  30  55 NW12      30.15S
BURLINGTON CO  CLEAR     36  30  79 W10       30.14S
LIMON CO       CLEAR     27  23  85 N9        30.20S
$$

...UNOFFICIAL OBSERVATIONS...

CITY           SKY/WX    TMP DP  RH WIND       PRES   REMARKS
COLBY KS       CLEAR     36  32  87 W8        30.12R
GOVE KS          N/A     29  32 100 MISG        N/A
NORTON KS      MOCLDY    30  19  64 SW5       30.08S
SHARON SPRINGS   N/A     34  28  77 W5          N/A
KIT CARSON CO    N/A     35  26  70 MISG        N/A
YUMA CO          N/A     35  29  78 W12         N/A
$$


USA.gov is the U.S. government's official web portal to all federal, state and local government web resources and services.